This demonstration page uses our WeatherBlox Daily Observations layout. Learn more.

Left ArrowRight Arrow

Hourly Observations for January 2, 2023

Temp ( °F °C ) Dew Point ( °F °C ) Humidity (%) Winds ( mph kmh ) Pressure ( in mb ) Visibility ( mi km ) Precip ( " mm )
12:53 am 00:53 Clear 10 -12.2 6 -14.4 84 84 SW 9 15 30.09 1019 10 16 0.00 0.00
1:53 am 01:53 Clear 4 -15.6 1 -17.2 87 87 W 3 6 30.09 1019 10 16 0.00 0.00
2:53 am 02:53 Clear 5 -15 3 -16.1 91 91 WNW 6 9 30.10 1019 10 16 0.00 0.00
3:53 am 03:53 Clear 4 -15.6 2 -16.7 91 91 W 8 13 30.10 1019 10 16 0.00 0.00
4:53 am 04:53 Clear 5 -15 2 -16.7 87 87 WNW 6 9 30.09 1019 10 16 0.00 0.00
5:53 am 05:53 Clear 3 -16.1 0 -17.8 87 87 Calm 30.11 1020 10 16 0.00 0.00
6:53 am 06:53 Clear 0 -17.8 -3 -19.4 87 87 Calm 30.12 1020 10 16 0.00 0.00
7:53 am 07:53 Clear 1 -17.2 -3 -19.4 83 83 NE 5 7 30.11 1020 10 16 0.00 0.00
8:02 am 08:02 Mostly Clear with Mist and Fog 1 -17.2 -3 -19.4 83 83 Calm 30.25 1024 2 2 0.00 0.00
8:09 am 08:09 Cloudy with Freezing Fog -1 -18.3 -3 -19.4 91 91 Calm 30.26 1025 1 1 0.00 0.00
8:14 am 08:14 Partly Cloudy with Mist and Fog 0 -17.8 -3 -19.4 87 87 Calm 30.25 1024 3 4 0.00 0.00
8:25 am 08:25 Partly Cloudy with Mist and Fog -1 -18.3 -5 -20.6 82 82 Calm 30.26 1025 2 3 0.00 0.00
8:34 am 08:34 Sunny with Mist and Fog -3 -19.4 -6 -21.1 86 86 Calm 30.27 1025 1 1 0.00 0.00
8:43 am 08:43 Cloudy with Mist and Fog -2 -18.9 -5 -20.6 86 86 Calm 30.28 1025 1 2 0.00 0.00
8:53 am 08:53 Mostly Cloudy with Mist and Fog -1 -18.3 -5 -20.6 82 82 Calm 30.13 1020 2 2 0.00 0.00
8:58 am 08:58 Mostly Cloudy with Mist and Fog -1 -18.3 -5 -20.6 82 82 SE 3 6 30.27 1025 3 5 0.00 0.00
9:53 am 09:53 Mostly Cloudy 2 -16.7 -2 -18.9 83 83 NE 5 7 30.13 1020 10 16 0.00 0.00
10:23 am 10:23 Partly Cloudy 4 -15.6 0 -17.8 83 83 ENE 5 7 30.24 1024 10 16 0.00 0.00
10:53 am 10:53 Sunny 5 -15 2 -16.7 87 87 E 3 6 30.12 1020 10 16 0.00 0.00
11:25 am 11:25 Mostly Sunny 9 -12.8 5 -15 83 83 ENE 3 6 30.17 1022 10 16 0.00 0.00
11:53 am 11:53 Sunny 9 -12.8 7 -13.9 91 91 Calm 30.08 1019 10 16 0.00 0.00
12:53 pm 12:53 Sunny 12 -11.1 7 -13.9 80 80 Calm 30.05 1018 10 16 0.00 0.00
1:29 pm 13:29 Partly Cloudy 11 -11.7 7 -13.9 84 84 E 7 11 30.13 1020 10 16 0.00 0.00
1:37 pm 13:37 Mostly Cloudy 11 -11.7 7 -13.9 84 84 E 6 9 30.12 1020 10 16 0.00 0.00
1:53 pm 13:53 Cloudy 10 -12.2 7 -13.9 87 87 E 7 11 30.06 1018 10 16 0.00 0.00
2:29 pm 14:29 Partly Cloudy 9 -12.8 6 -14.4 88 88 ENE 9 15 30.13 1020 10 16 0.00 0.00
2:39 pm 14:39 Mostly Cloudy 10 -12.2 7 -13.9 87 87 ENE 12 19 30.13 1020 10 16 0.00 0.00
2:53 pm 14:53 Cloudy 9 -12.8 7 -13.9 91 91 ENE 12 19 30.05 1018 10 16 0.00 0.00
3:53 pm 15:53 Cloudy 7 -13.9 4 -15.6 87 87 ENE 12 19 30.04 1017 10 16 0.00 0.00
4:16 pm 16:16 Cloudy with Mist and Fog 7 -13.9 5 -15 91 91 ENE 9 15 30.13 1020 1 1 0.00 0.00
4:38 pm 16:38 Cloudy with Freezing Fog 7 -13.9 5 -15 91 91 ENE 7 11 30.13 1020 0 0 0.00 0.00
4:45 pm 16:45 Cloudy with Mist and Fog 6 -14.4 5 -15 95 95 ENE 8 13 30.13 1020 1 2 0.00 0.00
4:53 pm 16:53 Cloudy with Freezing Fog 6 -14.4 4 -15.6 91 91 ENE 8 13 30.03 1017 1 1 0.00 0.00
5:08 pm 17:08 Cloudy with Mist and Fog 6 -14.4 4 -15.6 91 91 E 7 11 30.13 1020 1 2 0.00 0.00
5:15 pm 17:15 Cloudy with Mist and Fog 6 -14.4 4 -15.6 91 91 ENE 5 7 30.13 1020 2 3 0.00 0.00
5:23 pm 17:23 Cloudy with Mist and Fog 6 -14.4 4 -15.6 91 91 E 7 11 30.13 1020 6 10 0.00 0.00
5:35 pm 17:35 Cloudy with Mist and Fog 5 -15 3 -16.1 91 91 E 9 15 30.14 1021 2 3 0.00 0.00
5:44 pm 17:44 Cloudy with Mist and Fog 5 -15 3 -16.1 91 91 ENE 10 17 30.14 1021 1 2 0.00 0.00
5:53 pm 17:53 Cloudy with Mist and Fog 5 -15 3 -16.1 91 91 E 12 19 30.04 1017 1 1 0.00 0.00
6:01 pm 18:01 Cloudy with Mist and Fog 5 -15 3 -16.1 91 91 E 12 19 30.14 1021 1 2 0.00 0.00
6:15 pm 18:15 Cloudy with Mist and Fog 5 -15 3 -16.1 91 91 E 8 13 30.14 1021 2 2 0.00 0.00
6:26 pm 18:26 Cloudy with Mist and Fog 5 -15 3 -16.1 91 91 ENE 10 17 30.13 1020 2 3 0.00 0.00
6:31 pm 18:31 Cloudy with Mist and Fog 5 -15 3 -16.1 91 91 E 10 17 30.13 1020 1 2 0.00 0.00
6:48 pm 18:48 Cloudy with Mist and Fog 5 -15 3 -16 92 92 ENE 8 13 30.13 1020 2 3 0.00 0.00
6:53 pm 18:53 Cloudy with Mist and Fog 4 -15.6 2 -16.7 91 91 ENE 7 11 30.04 1017 5 8 0.00 0.00
7:53 pm 19:53 Cloudy with Mist and Fog 2 -16.7 -1 -18.3 87 87 ENE 8 13 30.04 1017 6 10 0.00 0.00
8:36 pm 20:36 Cloudy with Mist and Fog 2 -16.7 -1 -18.3 87 87 ENE 7 11 30.14 1021 2 3 0.00 0.00
8:53 pm 20:53 Cloudy with Mist and Fog 2 -16.7 -1 -18.3 87 87 ENE 7 11 30.03 1017 2 2 0.00 0.00
9:03 pm 21:03 Cloudy with Mist and Fog 2 -16.7 -1 -18.3 87 87 ENE 5 7 30.14 1021 3 4 0.00 0.00
9:27 pm 21:27 Cloudy with Mist and Fog 1 -17.2 -2 -18.9 87 87 E 3 6 30.14 1021 1 2 0.00 0.00
9:38 pm 21:38 Cloudy with Freezing Fog 1 -17.2 -1 -18.3 91 91 E 3 6 30.14 1021 1 1 0.00 0.00
9:53 pm 21:53 Cloudy with Mist and Fog 1 -17.2 -2 -18.9 87 87 ESE 3 6 30.02 1017 1 1 0.00 0.00
10:07 pm 22:07 Cloudy with Mist and Fog 0 -17.8 -2 -18.9 91 91 Calm 30.13 1020 1 2 0.00 0.00
10:12 pm 22:12 Cloudy with Mist and Fog -1 -18.3 -3 -19.4 91 91 Calm 30.14 1021 2 3 0.00 0.00
10:19 pm 22:19 Cloudy with Mist and Fog -2 -18.9 -5 -20.6 86 86 S 3 6 30.14 1021 6 10 0.00 0.00
10:28 pm 22:28 Cloudy with Mist and Fog -3 -19.4 -5 -20.6 90 90 S 5 7 30.16 1021 2 3 0.00 0.00
10:36 pm 22:36 Cloudy with Mist and Fog -3 -19.4 -5 -20.6 90 90 S 5 7 30.16 1021 1 2 0.00 0.00
10:44 pm 22:44 Cloudy with Freezing Fog -3 -19.4 -6 -21.1 86 86 SSW 3 6 30.16 1021 1 1 0.00 0.00
10:53 pm 22:53 Cloudy with Freezing Fog -4 -20 -6 -21.1 91 91 SSW 3 6 30.02 1017 0 0 0.00 0.00
11:26 pm 23:26 Cloudy with Mist and Fog -3 -19.4 -6 -21.1 86 86 Calm 30.15 1021 1 1 0.00 0.00
11:41 pm 23:41 Cloudy with Freezing Fog -3 -19.4 -5 -20.6 90 90 Calm 30.14 1021 0 0 0.00 0.00
11:53 pm 23:53 Cloudy with Freezing Fog -4 -20 -6 -21.1 91 91 WSW 3 6 29.99 1016 0 0 0.00 0.00

Powered by AerisWeather